Home > Weather > Anaheim > Past weeks

Flag for USA Past Weather in Anaheim, California, USA — Yesterday and Last 2 Weeks

Now
73 °F

Clear.


Feels Like: 75 °F
Forecast: 68 / 91 °F
Wind: 5 mph from Northwest

Location: Fullerton Municipal Airport

Current Time: Jul 26, 2016 at 7:21:18 AM

Latest Report: Jul 26, 2016 at 6:53 AM


Visibility: 8 mi

Pressure: 29.87 "Hg

Humidity: 74%

Dew Point: 64 °F

Location of AnaheimLocation

Past Weather in Anaheim — Graph

°F

Anaheim Temperature Yesterday

Maximum temperature yesterday: 92 °F (at 1:53 PM)
Minimum temperature yesterday: 70 °F (at 5:53 AM)
Average temperature yesterday: 79 °F

High & Low Weather Summary for the Past Weeks

 TemperatureHumidityPressure
High103 °F (Jul 22, 2:53 PM)87% (Jul 24, 4:53 AM)30.02 "Hg (Jul 24, 4:53 AM)
Low65 °F (Jul 15, 3:53 AM)13% (Jul 22, 3:53 PM)29.78 "Hg (Jul 23, 5:53 PM)
Average77 °F59%29.91 "Hg
* Reported Jul 11 5:53 AM — Jul 26 5:53 AM, Anaheim, Weather by CustomWeather, © 2016

Note: Actual official high and low records may vary slightly from our data, if they occured in-between our weather recording intervals... More about our weather records

Advertising

Anaheim Weather History for the Previous 24 Hours

Scroll right to see more
 ConditionsComfort  
Time TempWeatherWind HumidityBarometerVisibility
5:53 AM
Tue, Jul 26
72 °FClear.3 mph76%29.87 "Hg9 mi
4:53 AM72 °FClear.No wind78%29.88 "Hg9 mi
3:53 AM73 °FClear.3 mph76%29.88 "Hg10 mi
2:53 AM73 °FClear.No wind79%29.89 "Hg10 mi
1:53 AM74 °FClear.3 mph74%29.89 "Hg10 mi
12:53 AM74 °FClear.6 mph76%29.90 "Hg10 mi
11:53 PM
Mon, Jul 25
76 °FClear.No wind67%29.90 "Hg10 mi
10:53 PM77 °FClear.No wind64%29.90 "Hg10 mi
9:53 PM77 °FClear.5 mph69%29.90 "Hg10 mi
8:53 PM78 °FSunny.5 mph60%29.88 "Hg10 mi
7:53 PM79 °FSunny.6 mph54%29.86 "Hg10 mi
6:53 PM81 °FSunny.9 mph47%29.85 "Hg10 mi
5:53 PM82 °FSunny.9 mph46%29.84 "Hg10 mi
4:53 PM86 °FSunny.12 mph36%29.84 "Hg10 mi
3:53 PM88 °FSunny.10 mph39%29.85 "Hg10 mi
2:53 PM92 °FSunny.9 mph35%29.86 "Hg10 mi
1:53 PM92 °FSunny.10 mph37%29.88 "Hg10 mi
12:53 PM90 °FSunny.6 mph38%29.91 "Hg10 mi
11:53 AM90 °FSunny.7 mph37%29.94 "Hg10 mi
10:53 AM86 °FSunny.6 mph46%29.95 "Hg10 mi
9:53 AM82 °FSunny.No wind55%29.96 "Hg10 mi
8:53 AM79 °FSunny.3 mph62%29.96 "Hg9 mi
7:53 AM75 °FSunny.No wind74%29.95 "Hg8 mi
7:02 AM73 °FPassing clouds.No wind79%29.93 "Hg7 mi
Weather by CustomWeather, © 2016

See weather overviewHow to use our weather pages